DW8305 Weather Reports


time (UTC)temp
F
wind
direction
speed
knots
gust
knots
rain 1hr
in
rain 24hr
in
rain mn
in
humidity
%
barometer
mb
20230128002515 34 0.0 0.9 0.00 0.02 0.00 79 1030.1
20230128001515 34 90 0.9 1.7 0.00 0.02 0.00 79 1030.2
20230128000515 34 0.0 0.9 0.00 0.02 0.00 80 1030.1
20230127235515 34 0.0 0.0 0.00 0.02 0.00 80 1030.1
20230127234515 35 90 0.9 1.7 0.00 0.02 0.00 79 1030.1
20230127233515 35 45 2.6 3.5 0.00 0.02 0.00 78 1030.1
20230127232515 35 45 0.9 1.7 0.00 0.02 0.00 79 1030.0
20230127231515 35 68 1.7 1.7 0.00 0.02 0.00 79 1030.1
20230127230515 34 68 2.6 3.5 0.00 0.02 0.00 80 1030.0
20230127225516 35 45 1.7 2.6 0.00 0.02 0.02 80 1029.9
20230127224515 35 0.0 0.9 0.00 0.02 0.02 80 1029.9
20230127223516 35 0.0 0.9 0.00 0.02 0.02 80 1030.0
20230127222516 35 68 0.9 0.9 0.00 0.02 0.02 80 1030.0
20230127221516 35 68 0.9 2.6 0.00 0.02 0.02 79 1030.0
20230127220536 35 90 0.9 1.7 0.00 0.02 0.02 79 1030.0
20230127215516 35 68 0.9 1.7 0.00 0.02 0.02 79 1030.1
20230127214516 35 68 0.9 1.7 0.00 0.02 0.02 79 1030.2
20230127213516 35 45 0.9 1.7 0.00 0.02 0.02 79 1030.3
20230127212516 35 90 1.7 2.6 0.00 0.02 0.02 79 1030.3
20230127211516 35 68 0.9 1.7 0.00 0.02 0.02 79 1030.3
20230127210515 35 45 0.9 1.7 0.00 0.02 0.02 78 1030.4
20230127205516 35 45 2.6 3.5 0.00 0.02 0.02 78 1030.4
20230127204515 35 45 1.7 3.5 0.00 0.02 0.02 80 1030.3
20230127203536 35 45 0.9 2.6 0.00 0.02 0.02 80 1030.4
20230127202515 35 45 2.6 3.5 0.00 0.02 0.02 80 1030.3
20230127201515 35 0.0 0.9 0.00 0.02 0.02 80 1030.4
20230127200516 36 45 2.6 3.5 0.00 0.02 0.02 80 1030.3
20230127195516 36 45 1.7 2.6 0.00 0.02 0.02 80 1030.3
20230127194516 36 45 0.9 0.9 0.00 0.02 0.02 81 1030.2
20230127193536 36 68 0.9 1.7 0.00 0.02 0.02 81 1030.2
20230127192516 36 45 2.6 3.5 0.00 0.02 0.02 80 1030.1
20230127191516 36 45 2.6 3.5 0.00 0.02 0.02 81 1030.2
20230127190536 36 68 2.6 3.5 0.00 0.02 0.02 80 1030.1
20230127185516 36 68 0.9 1.7 0.00 0.02 0.02 81 1030.1
20230127184516 36 45 2.6 4.3 0.00 0.02 0.02 82 1030.1
20230127183515 36 68 1.7 1.7 0.00 0.02 0.02 82 1030.1
20230127182516 36 23 2.6 5.2 0.00 0.02 0.02 83 1030.2
20230127181516 36 45 1.7 3.5 0.00 0.02 0.02 82 1030.1
20230127180516 36 45 2.6 3.5 0.00 0.02 0.02 83 1030.0
20230127175516 36 23 2.6 3.5 0.00 0.02 0.02 83 1029.9
20230127174515 36 45 1.7 2.6 0.00 0.02 0.02 84 1029.8
20230127173516 36 45 0.9 2.6 0.00 0.02 0.02 84 1029.7
20230127172516 36 45 0.9 1.7 0.00 0.02 0.02 84 1029.7
20230127171515 36 68 1.7 2.6 0.00 0.02 0.02 84 1029.5
20230127170516 36 68 0.9 1.7 0.00 0.02 0.02 84 1029.5
20230127165515 36 68 1.7 2.6 0.00 0.02 0.02 84 1029.4
20230127164516 36 45 0.9 1.7 0.00 0.02 0.02 84 1029.3
20230127163516 36 68 3.5 4.3 0.00 0.02 0.02 84 1029.3
20230127162516 36 68 3.5 6.1 0.00 0.02 0.02 84 1029.2
20230127161515 37 68 2.6 4.3 0.00 0.02 0.02 84 1029.1
20230127160516 37 68 4.3 7.0 0.00 0.02 0.02 84 1029.0
20230127155515 37 68 2.6 5.2 0.00 0.02 0.02 84 1029.0
20230127154515 37 45 3.5 7.0 0.00 0.02 0.02 84 1028.8
20230127153535 37 68 5.2 7.8 0.00 0.02 0.02 84 1028.7
20230127152516 37 23 3.5 5.2 0.00 0.02 0.02 85 1028.6
20230127151535 38 23 5.2 7.8 0.00 0.02 0.02 86 1028.5
20230127150515 38 45 6.1 12.2 0.00 0.02 0.02 86 1028.4
20230127145515 38 45 4.3 7.0 0.00 0.02 0.02 86 1028.3
20230127144516 38 113 0.9 3.5 0.00 0.02 0.02 86 1028.4
20230127143516 38 23 3.5 7.0 0.00 0.02 0.02 86 1028.2
20230127142515 38 45 2.6 3.5 0.00 0.03 0.02 86 1028.3
20230127141515 38 23 3.5 5.2 0.00 0.03 0.02 86 1028.2
20230127140516 38 23 2.6 5.2 0.00 0.03 0.02 87 1028.1
20230127135516 38 45 4.3 7.8 0.00 0.03 0.02 89 1028.1
20230127134515 38 45 2.6 5.2 0.00 0.03 0.02 89 1028.1
20230127133516 38 68 4.3 6.1 0.00 0.03 0.02 89 1028.1
20230127132515 38 45 4.3 7.8 0.00 0.03 0.02 89 1028.1
20230127131516 38 45 3.5 7.0 0.01 0.03 0.02 89 1028.0
20230127130535 38 45 5.2 9.6 0.01 0.03 0.02 89 1027.9
20230127125515 38 68 4.3 7.0 0.01 0.03 0.02 89 1027.9
20230127124515 38 68 5.2 9.6 0.01 0.03 0.02 89 1028.0
20230127123515 39 23 3.5 4.3 0.01 0.03 0.02 90 1028.0
20230127122515 39 68 4.3 7.8 0.01 0.03 0.02 90 1028.0
20230127121556 39 45 3.5 5.2 0.00 0.02 0.01 90 1028.0
20230127120515 39 45 2.6 3.5 0.00 0.02 0.01 91 1028.0
20230127115515 39 45 2.6 4.3 0.00 0.02 0.01 91 1028.2
20230127114515 39 68 7.0 10.4 0.00 0.02 0.01 91 1028.2
20230127113515 39 68 4.3 7.0 0.00 0.02 0.01 91 1028.3
20230127112515 39 45 4.3 7.0 0.00 0.02 0.01 92 1028.3
20230127111516 39 45 4.3 6.1 0.00 0.02 0.01 92 1028.3
20230127110515 39 23 6.1 10.4 0.00 0.02 0.01 92 1028.3
20230127105515 39 68 5.2 7.8 0.00 0.02 0.01 93 1028.2
20230127104516 39 45 5.2 7.0 0.00 0.02 0.01 93 1028.2
20230127103535 39 45 3.5 6.1 0.00 0.02 0.01 93 1028.0
20230127102515 39 45 4.3 6.1 0.00 0.02 0.01 93 1028.0
20230127101515 39 45 7.0 11.3 0.00 0.02 0.01 95 1028.0
20230127100515 39 68 4.3 6.1 0.00 0.02 0.01 95 1028.0
20230127095516 39 45 4.3 6.1 0.00 0.02 0.01 96 1027.9
20230127094516 39 45 4.3 6.1 0.00 0.02 0.01 96 1028.0
20230127093515 39 68 3.5 5.2 0.00 0.02 0.01 96 1028.0
20230127092516 38 45 2.6 5.2 0.00 0.02 0.01 97 1028.0
20230127091535 38 68 2.6 4.3 0.00 0.02 0.01 97 1028.0
20230127090535 38 23 3.5 6.1 0.00 0.02 0.01 97 1028.0
20230127085516 38 45 2.6 6.1 0.00 0.02 0.01 98 1027.8
20230127084515 38 45 2.6 4.3 0.00 0.02 0.01 98 1027.8
20230127083516 38 68 2.6 4.3 0.00 0.02 0.01 98 1027.7
20230127082535 38 45 4.3 7.0 0.00 0.02 0.01 99 1027.7
20230127081516 38 45 2.6 4.3 0.00 0.02 0.01 99 1027.5
20230127080515 38 45 3.5 5.2 0.00 0.02 0.01 99 1027.4
20230127075555 38 45 4.3 6.1 0.00 0.02 0.01 99 1027.3
20230127074516 38 45 3.5 4.3 0.00 0.02 0.01 99 1027.2
20230127073516 38 45 5.2 9.6 0.00 0.02 0.01 99 1027.1
20230127072556 38 45 4.3 7.0 0.00 0.02 0.01 99 1027.0
20230127071515 38 45 7.0 8.7 0.00 0.02 0.01 99 1026.8
20230127070515 38 45 7.0 11.3 0.00 0.02 0.01 99 1026.6
20230127065536 38 23 4.3 7.8 0.00 0.02 0.01 99 1026.6
20230127064515 38 23 3.5 7.8 0.00 0.02 0.01 99 1026.5
20230127063536 38 23 3.5 5.2 0.00 0.02 0.01 99 1026.4
20230127062516 38 68 3.5 4.3 0.00 0.02 0.01 99 1026.3
20230127061535 38 23 4.3 6.1 0.00 0.02 0.01 99 1026.3
20230127060515 38 45 5.2 9.6 0.00 0.02 0.01 99 1026.2
20230127055515 38 45 5.2 7.8 0.00 0.02 0.01 99 1026.2
20230127054516 39 45 5.2 7.8 0.00 0.02 0.01 99 1026.0
20230127053516 39 45 9.6 13.0 0.00 0.02 0.01 99 1026.0
20230127052515 39 23 4.3 9.6 0.00 0.02 0.01 99 1025.8
20230127051515 39 45 4.3 6.1 0.00 0.02 0.01 99 1025.7
20230127050515 39 45 2.6 5.2 0.00 0.02 0.01 99 1025.7
20230127045515 39 23 2.6 7.0 0.00 0.02 0.01 99 1025.6
20230127044516 38 45 4.3 6.1 0.00 0.02 0.01 99 1025.5
20230127043516 38 23 2.6 4.3 0.00 0.02 0.01 99 1025.4
20230127042515 38 23 2.6 4.3 0.00 0.02 0.01 99 1025.3
20230127041535 38 23 0.9 2.6 0.00 0.02 0.01 99 1025.2
20230127040515 38 45 1.7 2.6 0.00 0.02 0.01 99 1025.2
20230127035515 38 0.0 1.7 0.00 0.02 0.01 99 1025.1
20230127034515 38 23 0.9 0.9 0.00 0.02 0.01 99 1025.1
20230127033515 38 0.0 0.9 0.00 0.02 0.01 99 1025.0
20230127032515 38 0 0.9 1.7 0.00 0.02 0.01 99 1025.0
20230127031515 38 0 0.9 3.5 0.01 0.02 0.01 99 1025.0
20230127030515 37 338 0.9 1.7 0.01 0.02 0.01 99 1025.0
20230127025515 37 0.0 0.9 0.01 0.02 0.01 99 1024.9
20230127024515 37 0.0 0.9 0.01 0.02 0.01 99 1024.7
20230127023515 37 0.0 0.9 0.01 0.02 0.01 99 1024.7
20230127022515 37 0 0.9 1.7 0.01 0.02 0.01 99 1024.7
20230127021515 37 0 0.9 1.7 0.00 0.02 0.00 99 1024.8
20230127020515 37 0 0.9 0.9 0.00 0.02 0.00 99 1024.7
20230127015515 37 23 0.9 1.7 0.00 0.02 0.00 99 1024.8
20230127014515 37 315 1.7 1.7 0.00 0.02 0.00 99 1024.7
20230127013555 37 338 0.9 1.7 0.00 0.02 0.00 99 1024.7
20230127012515 37 23 1.7 3.5 0.00 0.02 0.00 99 1024.6
20230127011515 37 0.0 0.9 0.00 0.02 0.00 99 1024.6
20230127010515 37 338 1.7 2.6 0.00 0.02 0.00 99 1024.5
20230127005515 37 338 2.6 2.6 0.00 0.02 0.00 99 1024.4
20230127004515 37 338 0.9 2.6 0.00 0.02 0.00 99 1024.3
20230127003515 37 315 0.9 0.9 0.00 0.02 0.00 99 1024.3